STARLINK-3898, 52458

Orbit data source: Space-Track

STARLINK-3898, 52458 is a payload satellite owned by SpaceX/Seattle (US) in LEO that was launched on Fri, 06 May 2022 UTC via an FALCON 9 launch vehicle from the Air Force Eastern Test Range (AFETR). Payload-class satellites include a variety of spacecraft equipped with specific instruments for various scientific and technological missions. These include communications satellites like Starlink; space stations such as the ISS; scientific satellites like the Hubble; Earth observation satellites from companies like Planet Labs, Umbra, and HawkEye 360; GPS; miniature CubeSats for education and research; and military/defense satellites.

Loading next visibility...
Identifier
52458, 2022-049H
Orbit
LEO
Country
Flag of USUS
Related business
Manufacturer
SpaceX/Seattle
Mission
Operational Commercial Communications
Bus & Motor
STARLINK, Unknown motor
Mass
297 kg wet, ~220 kg dry
Launch date (UTC)
2022-05-06 (4 years ago)
Launch vehicle
FALCON 9
Launch site
Air Force Eastern Test Range (AFETR)
Object type
Payload
Rocket body
Debris
Shape & HBR
Box + 1 Pan, 10.1 m
Radar Cross Section
13.562 m², Large (>1 m²)

Expand to show TLE details & history
Last TLE update: 1 day ago

TLE from 1 day ago
0 STARLINK-3898
1 52458U 22049H   26206.20519080 -.00000186  00000-0  64119-5 0  9994
2 52458  53.1610 171.4641 0001227  77.8587 282.2542 15.08835386232874
Epoch: 2026-07-25T04:55Z
TLE epoch observation values (Epoch: 2026-07-25T04:55:28.485Z)
Latitude
0.00001°
Longitude
154.6746°
Altitude
540.469 km
Speed
7.593 km/s
True Right ascension
11h 25m 51s
True Declination
0° 00' 00"
Sunlit
Object was in daylight at epoch
Visualization orbit readout
Latitude
Unknown
Longitude
Unknown
Altitude
Unknown
Speed
Unknown
Apparent Right ascension
Unknown
Apparent Declination
Unknown
Sunlit
N/A
Visualization observer readout
Local Sidereal Time
00:06:28
Azimuth
Unknown
Elevation
Unknown
Doppler factor
Unknown
Orbital elements
Apogee altitude
540.86 km
Perigee altitude
539.163 km
Semi-major axis
6,918.148 km
Eccentricity
0.00012
Inclination
53.161°
RAAN
171.4641°
Arg. of periapsis
77.8587°
True anomaly
282.24046°
Mean anomaly
282.2542°
Eccentric anomaly
282.24733°
Mean motion
3.77188 °/min
Orbital period
95.44 mins
BSTAR
0.0000064119
Loading maneuver chart data...
Computing Atmospheric mass density...
Loading historical data...
Loading historical data...
Loading historical data...
Loading historical data...
Loading historical data...
Loading historical data...
Loading historical data...

Documentation

Showing up to 5 results
|